Flag for Germany Weather past 2 weeks in Bad Neuenahr-Ahrweiler, Rhineland-Palatinate, Germany

Now
44 °F

Rain. Low clouds.


Feels Like: 37 °F
Forecast: 44 / 52 °F
Wind: 13 mph from Southwest

Location: Bonn-Hangelar

Current Time: Dec 21, 2014 at 8:44:22 PM

Latest Report: Dec 21, 2014 at 8:00 PM


Visibility: 9 mi

Pressure: 30.30 "Hg

Humidity: 94%

Dew point: 42 °F

Location of Bad Neuenahr-AhrweilerLocation

Historic Weather in Bad Neuenahr-Ahrweiler — Graph

°F

Bad Neuenahr-Ahrweiler temperature yesterday

Maximum temperature yesterday: 43 °F (at 5:00 PM)
Minimum temperature yesterday: 39 °F (at 4:00 AM)
Average temperature yesterday: 41 °F

Past Weeks' High & Low Weather Summary

 TemperatureHumidityPressure
High53 °F (Dec 18, 6:00 PM)100% (Dec 6, 7:00 PM)30.45 "Hg (Dec 6, 7:00 PM)
Low32 °F (Dec 8, 7:00 PM)73% (Dec 10, 3:00 AM)29.41 "Hg (Dec 12, 4:00 PM)
Average41 °F93%30.00 "Hg
* Reported Dec 6 7:00 PM — Dec 21 7:00 PM, Bad Neuenahr-Ahrweiler, Weather by CustomWeather, © 2014

Note: Actual official high and low records may vary slightly from our data, if they occured in-between our weather recording intervals... More about our weather records

Advertising

Bad Neuenahr-Ahrweiler weather history for previous 24 hours

 ConditionsComfort  
Time TempWeatherWind HumidityBarometerVisibility
7:00 PM
Dec 21
44 °FRain. Overcast.12 mph92%30.31 "Hg19 mi
6:00 PM43 °FOvercast.13 mph94%30.31 "Hg19 mi
5:00 PM43 °FRain. Low clouds.13 mph95%30.32 "Hg6 mi
4:00 PM43 °FRain. Low clouds.13 mph93%30.32 "Hg6 mi
3:00 PM43 °FRain. Overcast.10 mph89%30.35 "Hg16 mi
2:00 PM43 °FRain. Overcast.10 mph88%30.37 "Hg22 mi
1:00 PM43 °FOvercast.12 mph85%30.38 "Hg22 mi
12:00 PM42 °FOvercast.9 mph88%30.41 "Hg25 mi
11:00 AM41 °FOvercast.9 mph92%30.44 "Hg25 mi
10:00 AM40 °FOvercast.10 mph90%30.44 "Hg25 mi
9:00 AM39 °FOvercast.9 mph94%30.44 "Hg16 mi
8:00 AM39 °FOvercast.7 mph96%30.44 "Hg9 mi
7:00 AM39 °FOvercast.7 mph97%30.45 "Hg9 mi
6:00 AM38 °FPassing clouds.6 mph98%30.45 "Hg9 mi
5:00 AM39 °FLow clouds.6 mph96%30.44 "Hg6 mi
4:00 AM40 °FOvercast.6 mph94%30.45 "Hg9 mi
3:00 AM39 °FOvercast.6 mph94%30.44 "Hg10 mi
2:00 AM39 °FOvercast.7 mph95%30.42 "Hg11 mi
1:00 AM40 °FPassing clouds.7 mph94%30.41 "Hg12 mi
12:00 AM41 °FPassing clouds.9 mph92%30.38 "Hg15 mi
11:00 PM
Dec 20
42 °FOvercast.8 mph91%30.36 "Hg16 mi
10:00 PM41 °FPassing clouds.8 mph91%30.35 "Hg18 mi
9:00 PM42 °FOvercast.10 mph89%30.31 "Hg22 mi
8:00 PM42 °FOvercast.9 mph88%30.28 "Hg22 mi
Weather by CustomWeather, © 2014

See weather overviewHow to use our weather pages